![]() |
EMODnet Physics ERDDAP
Easier access to scientific data |
log in|
Brought to you by EMODnet Physics |
| Dataset Title: | NDBC - Collection of dew point temperature (DEWT) TimeSeries - IN SITU MultiPointTimeSeriesObservation
|
| Institution: | NDBC (Dataset ID: TS_DEWT_NDBC) |
| Information: | Summary
| License
| FGDC
| ISO 19115
| Metadata
| Background
| Subset
| Data Access Form
| Make a graph
|
| Name | Last modified | Size | Description | |
|---|---|---|---|---|
| Parent Directory | - | - | ||
| GELO1_TS_DEWT_012008.nc | 27-Oct-2024 10:17 | 447276 | ||
| GELO1_TS_DEWT_012009.nc | 27-Oct-2024 10:18 | 447879 | ||
| GELO1_TS_DEWT_012010.nc | 27-Oct-2024 10:18 | 448617 | ||
| GELO1_TS_DEWT_012011.nc | 27-Oct-2024 10:18 | 448168 | ||
| GELO1_TS_DEWT_012012.nc | 27-Oct-2024 10:18 | 450212 | ||
| GELO1_TS_DEWT_012013.nc | 27-Oct-2024 10:18 | 443162 | ||
| GELO1_TS_DEWT_012014.nc | 27-Oct-2024 10:18 | 434218 | ||
| GELO1_TS_DEWT_012016.nc | 27-Oct-2024 10:18 | 449582 | ||
| GELO1_TS_DEWT_012017.nc | 27-Oct-2024 10:18 | 435054 | ||
| GELO1_TS_DEWT_012020.nc | 27-Oct-2024 10:18 | 449962 | ||
| GELO1_TS_DEWT_012021.nc | 27-Oct-2024 10:18 | 449899 | ||
| GELO1_TS_DEWT_012022.nc | 27-Oct-2024 10:18 | 450255 | ||
| GELO1_TS_DEWT_012023.nc | 27-Oct-2024 10:18 | 450611 | ||
| GELO1_TS_DEWT_022008.nc | 27-Oct-2024 10:18 | 450296 | ||
| GELO1_TS_DEWT_022009.nc | 27-Oct-2024 10:18 | 450650 | ||
| GELO1_TS_DEWT_022010.nc | 27-Oct-2024 10:18 | 449598 | ||
| GELO1_TS_DEWT_022011.nc | 27-Oct-2024 10:18 | 449799 | ||
| GELO1_TS_DEWT_022012.nc | 27-Oct-2024 10:18 | 450682 | ||
| GELO1_TS_DEWT_022013.nc | 27-Oct-2024 10:18 | 451448 | ||
| GELO1_TS_DEWT_022014.nc | 27-Oct-2024 10:19 | 449574 | ||
| GELO1_TS_DEWT_022016.nc | 27-Oct-2024 10:19 | 432129 | ||
| GELO1_TS_DEWT_022017.nc | 27-Oct-2024 10:19 | 434110 | ||
| GELO1_TS_DEWT_022020.nc | 27-Oct-2024 10:19 | 449371 | ||
| GELO1_TS_DEWT_022021.nc | 27-Oct-2024 10:19 | 448355 | ||
| GELO1_TS_DEWT_022022.nc | 27-Oct-2024 10:19 | 436004 | ||
| GELO1_TS_DEWT_022023.nc | 27-Oct-2024 10:19 | 448495 | ||
| GELO1_TS_DEWT_032008.nc | 27-Oct-2024 10:19 | 449070 | ||
| GELO1_TS_DEWT_032009.nc | 27-Oct-2024 10:19 | 448649 | ||
| GELO1_TS_DEWT_032010.nc | 27-Oct-2024 10:19 | 448520 | ||
| GELO1_TS_DEWT_032011.nc | 27-Oct-2024 10:19 | 450097 | ||
| GELO1_TS_DEWT_032012.nc | 27-Oct-2024 10:19 | 448828 | ||
| GELO1_TS_DEWT_032013.nc | 27-Oct-2024 10:19 | 449766 | ||
| GELO1_TS_DEWT_032014.nc | 27-Oct-2024 10:19 | 449203 | ||
| GELO1_TS_DEWT_032016.nc | 27-Oct-2024 10:19 | 449260 | ||
| GELO1_TS_DEWT_032017.nc | 27-Oct-2024 10:19 | 450148 | ||
| GELO1_TS_DEWT_032020.nc | 27-Oct-2024 10:19 | 423893 | ||
| GELO1_TS_DEWT_032021.nc | 27-Oct-2024 10:19 | 448248 | ||
| GELO1_TS_DEWT_032022.nc | 27-Oct-2024 10:19 | 449406 | ||
| GELO1_TS_DEWT_032023.nc | 27-Oct-2024 10:20 | 450448 | ||
| GELO1_TS_DEWT_042008.nc | 27-Oct-2024 10:20 | 449736 | ||
| GELO1_TS_DEWT_042009.nc | 27-Oct-2024 10:20 | 450596 | ||
| GELO1_TS_DEWT_042010.nc | 27-Oct-2024 10:20 | 450645 | ||
| GELO1_TS_DEWT_042011.nc | 27-Oct-2024 10:20 | 450238 | ||
| GELO1_TS_DEWT_042012.nc | 27-Oct-2024 10:20 | 450071 | ||
| GELO1_TS_DEWT_042013.nc | 27-Oct-2024 10:20 | 450599 | ||
| GELO1_TS_DEWT_042014.nc | 27-Oct-2024 10:20 | 449491 | ||
| GELO1_TS_DEWT_042016.nc | 27-Oct-2024 10:20 | 450821 | ||
| GELO1_TS_DEWT_042017.nc | 27-Oct-2024 10:20 | 451492 | ||
| GELO1_TS_DEWT_042020.nc | 27-Oct-2024 10:20 | 450444 | ||
| GELO1_TS_DEWT_042021.nc | 27-Oct-2024 10:20 | 435868 | ||
| GELO1_TS_DEWT_042022.nc | 27-Oct-2024 10:20 | 448678 | ||
| GELO1_TS_DEWT_042023.nc | 27-Oct-2024 10:20 | 448578 | ||
| GELO1_TS_DEWT_052008.nc | 27-Oct-2024 10:20 | 441602 | ||
| GELO1_TS_DEWT_052009.nc | 27-Oct-2024 10:20 | 428540 | ||
| GELO1_TS_DEWT_052010.nc | 27-Oct-2024 10:20 | 442417 | ||
| GELO1_TS_DEWT_052011.nc | 27-Oct-2024 10:21 | 449216 | ||
| GELO1_TS_DEWT_052012.nc | 27-Oct-2024 10:21 | 448434 | ||
| GELO1_TS_DEWT_052013.nc | 27-Oct-2024 10:21 | 448336 | ||
| GELO1_TS_DEWT_052014.nc | 27-Oct-2024 10:21 | 448722 | ||
| GELO1_TS_DEWT_052016.nc | 27-Oct-2024 10:21 | 448440 | ||
| GELO1_TS_DEWT_052017.nc | 27-Oct-2024 10:21 | 447989 | ||
| GELO1_TS_DEWT_052020.nc | 27-Oct-2024 10:21 | 448097 | ||
| GELO1_TS_DEWT_052021.nc | 27-Oct-2024 10:21 | 449521 | ||
| GELO1_TS_DEWT_052022.nc | 27-Oct-2024 10:21 | 449663 | ||
| GELO1_TS_DEWT_052023.nc | 27-Oct-2024 10:21 | 449179 | ||
| GELO1_TS_DEWT_062008.nc | 27-Oct-2024 10:21 | 449077 | ||
| GELO1_TS_DEWT_062009.nc | 27-Oct-2024 10:21 | 446206 | ||
| GELO1_TS_DEWT_062010.nc | 27-Oct-2024 10:21 | 443213 | ||
| GELO1_TS_DEWT_062011.nc | 27-Oct-2024 10:21 | 450622 | ||
| GELO1_TS_DEWT_062012.nc | 27-Oct-2024 10:21 | 450204 | ||
| GELO1_TS_DEWT_062013.nc | 27-Oct-2024 10:21 | 450326 | ||
| GELO1_TS_DEWT_062014.nc | 27-Oct-2024 10:21 | 449333 | ||
| GELO1_TS_DEWT_062016.nc | 27-Oct-2024 10:21 | 450696 | ||
| GELO1_TS_DEWT_062017.nc | 27-Oct-2024 10:21 | 449144 | ||
| GELO1_TS_DEWT_062020.nc | 27-Oct-2024 10:21 | 449864 | ||
| GELO1_TS_DEWT_062021.nc | 27-Oct-2024 10:22 | 450245 | ||
| GELO1_TS_DEWT_062022.nc | 27-Oct-2024 10:22 | 450581 | ||
| GELO1_TS_DEWT_062023.nc | 27-Oct-2024 10:22 | 449820 | ||
| GELO1_TS_DEWT_072007.nc | 27-Oct-2024 10:22 | 434308 | ||
| GELO1_TS_DEWT_072008.nc | 27-Oct-2024 10:22 | 430522 | ||
| GELO1_TS_DEWT_072009.nc | 27-Oct-2024 10:22 | 449394 | ||
| GELO1_TS_DEWT_072010.nc | 27-Oct-2024 10:22 | 449444 | ||
| GELO1_TS_DEWT_072011.nc | 27-Oct-2024 10:22 | 450389 | ||
| GELO1_TS_DEWT_072012.nc | 27-Oct-2024 10:22 | 450077 | ||
| GELO1_TS_DEWT_072013.nc | 27-Oct-2024 10:22 | 449405 | ||
| GELO1_TS_DEWT_072014.nc | 27-Oct-2024 10:22 | 449795 | ||
| GELO1_TS_DEWT_072016.nc | 27-Oct-2024 10:22 | 449601 | ||
| GELO1_TS_DEWT_072017.nc | 27-Oct-2024 10:22 | 449873 | ||
| GELO1_TS_DEWT_072020.nc | 27-Oct-2024 10:22 | 450397 | ||
| GELO1_TS_DEWT_072021.nc | 27-Oct-2024 10:22 | 449723 | ||
| GELO1_TS_DEWT_072022.nc | 27-Oct-2024 10:22 | 450528 | ||
| GELO1_TS_DEWT_072023.nc | 27-Oct-2024 10:22 | 433769 | ||
| GELO1_TS_DEWT_082007.nc | 27-Oct-2024 10:22 | 450266 | ||
| GELO1_TS_DEWT_082008.nc | 27-Oct-2024 10:23 | 442590 | ||
| GELO1_TS_DEWT_082009.nc | 27-Oct-2024 10:23 | 444519 | ||
| GELO1_TS_DEWT_082010.nc | 27-Oct-2024 10:23 | 438843 | ||
| GELO1_TS_DEWT_082011.nc | 27-Oct-2024 10:23 | 431831 | ||
| GELO1_TS_DEWT_082012.nc | 27-Oct-2024 10:23 | 448567 | ||
| GELO1_TS_DEWT_082013.nc | 27-Oct-2024 10:23 | 449451 | ||
| GELO1_TS_DEWT_082014.nc | 27-Oct-2024 10:23 | 450261 | ||
| GELO1_TS_DEWT_082016.nc | 27-Oct-2024 10:23 | 448552 | ||
| GELO1_TS_DEWT_082017.nc | 27-Oct-2024 10:23 | 447786 | ||
| GELO1_TS_DEWT_082020.nc | 27-Oct-2024 10:23 | 450252 | ||
| GELO1_TS_DEWT_082021.nc | 27-Oct-2024 10:23 | 449104 | ||
| GELO1_TS_DEWT_082022.nc | 27-Oct-2024 10:23 | 448851 | ||
| GELO1_TS_DEWT_082023.nc | 27-Oct-2024 10:23 | 441726 | ||
| GELO1_TS_DEWT_092007.nc | 27-Oct-2024 10:23 | 449491 | ||
| GELO1_TS_DEWT_092008.nc | 27-Oct-2024 10:23 | 449774 | ||
| GELO1_TS_DEWT_092009.nc | 27-Oct-2024 10:23 | 451012 | ||
| GELO1_TS_DEWT_092010.nc | 27-Oct-2024 10:23 | 430404 | ||
| GELO1_TS_DEWT_092013.nc | 27-Oct-2024 10:23 | 450365 | ||
| GELO1_TS_DEWT_092014.nc | 27-Oct-2024 10:24 | 449165 | ||
| GELO1_TS_DEWT_092016.nc | 27-Oct-2024 10:24 | 450806 | ||
| GELO1_TS_DEWT_092017.nc | 27-Oct-2024 10:24 | 450516 | ||
| GELO1_TS_DEWT_092020.nc | 27-Oct-2024 10:24 | 449752 | ||
| GELO1_TS_DEWT_092021.nc | 27-Oct-2024 10:24 | 450815 | ||
| GELO1_TS_DEWT_092022.nc | 27-Oct-2024 10:24 | 449547 | ||
| GELO1_TS_DEWT_092023.nc | 27-Oct-2024 10:24 | 448892 | ||
| GELO1_TS_DEWT_102007.nc | 27-Oct-2024 10:24 | 431161 | ||
| GELO1_TS_DEWT_102009.nc | 27-Oct-2024 10:24 | 450725 | ||
| GELO1_TS_DEWT_102010.nc | 27-Oct-2024 10:24 | 448665 | ||
| GELO1_TS_DEWT_102011.nc | 27-Oct-2024 10:24 | 449132 | ||
| GELO1_TS_DEWT_102012.nc | 27-Oct-2024 10:24 | 449957 | ||
| GELO1_TS_DEWT_102013.nc | 27-Oct-2024 10:24 | 429530 | ||
| GELO1_TS_DEWT_102014.nc | 27-Oct-2024 10:24 | 449750 | ||
| GELO1_TS_DEWT_102015.nc | 27-Oct-2024 10:24 | 449792 | ||
| GELO1_TS_DEWT_102016.nc | 27-Oct-2024 10:24 | 449337 | ||
| GELO1_TS_DEWT_102017.nc | 27-Oct-2024 10:24 | 448502 | ||
| GELO1_TS_DEWT_102019.nc | 27-Oct-2024 10:24 | 448584 | ||
| GELO1_TS_DEWT_102020.nc | 27-Oct-2024 10:24 | 420267 | ||
| GELO1_TS_DEWT_102021.nc | 27-Oct-2024 10:24 | 449056 | ||
| GELO1_TS_DEWT_102022.nc | 27-Oct-2024 10:24 | 449986 | ||
| GELO1_TS_DEWT_102023.nc | 27-Oct-2024 10:24 | 419079 | ||
| GELO1_TS_DEWT_112008.nc | 27-Oct-2024 10:25 | 449688 | ||
| GELO1_TS_DEWT_112009.nc | 27-Oct-2024 10:25 | 450539 | ||
| GELO1_TS_DEWT_112010.nc | 27-Oct-2024 10:25 | 450717 | ||
| GELO1_TS_DEWT_112011.nc | 27-Oct-2024 10:25 | 450408 | ||
| GELO1_TS_DEWT_112012.nc | 27-Oct-2024 10:25 | 427732 | ||
| GELO1_TS_DEWT_112013.nc | 27-Oct-2024 10:25 | 451313 | ||
| GELO1_TS_DEWT_112015.nc | 27-Oct-2024 10:25 | 451436 | ||
| GELO1_TS_DEWT_112016.nc | 27-Oct-2024 10:25 | 450710 | ||
| GELO1_TS_DEWT_112017.nc | 27-Oct-2024 10:25 | 451157 | ||
| GELO1_TS_DEWT_112019.nc | 27-Oct-2024 10:25 | 450549 | ||
| GELO1_TS_DEWT_112020.nc | 27-Oct-2024 10:25 | 449991 | ||
| GELO1_TS_DEWT_112022.nc | 27-Oct-2024 10:25 | 438183 | ||
| GELO1_TS_DEWT_112023.nc | 27-Oct-2024 10:25 | 450299 | ||
| GELO1_TS_DEWT_122007.nc | 27-Oct-2024 10:25 | 449985 | ||
| GELO1_TS_DEWT_122008.nc | 27-Oct-2024 10:25 | 449654 | ||
| GELO1_TS_DEWT_122009.nc | 27-Oct-2024 10:25 | 429661 | ||
| GELO1_TS_DEWT_122010.nc | 27-Oct-2024 10:25 | 429672 | ||
| GELO1_TS_DEWT_122011.nc | 27-Oct-2024 10:25 | 429675 | ||
| GELO1_TS_DEWT_122012.nc | 27-Oct-2024 10:25 | 422004 | ||
| GELO1_TS_DEWT_122013.nc | 27-Oct-2024 10:25 | 429764 | ||
| GELO1_TS_DEWT_122015.nc | 27-Oct-2024 10:25 | 429637 | ||
| GELO1_TS_DEWT_122016.nc | 27-Oct-2024 10:26 | 429695 | ||
| GELO1_TS_DEWT_122017.nc | 27-Oct-2024 10:26 | 429694 | ||
| GELO1_TS_DEWT_122019.nc | 27-Oct-2024 10:26 | 429689 | ||
| GELO1_TS_DEWT_122020.nc | 27-Oct-2024 10:26 | 429668 | ||
| GELO1_TS_DEWT_122021.nc | 27-Oct-2024 10:26 | 429679 | ||
| GELO1_TS_DEWT_122022.nc | 27-Oct-2024 10:26 | 429104 | ||
| GELO1_TS_DEWT_122023.nc | 27-Oct-2024 10:26 | 426914 | ||